Date,TemperatureHighF,TemperatureAvgF,TemperatureLowF,DewpointHighF,DewpointAvgF,DewpointLowF,HumidityHigh,HumidityAvg,HumidityLow,PressureMaxIn,PressureMinIn,WindSpeedMaxMPH,WindSpeedAvgMPH,GustSpeedMaxMPH,PrecipitationSumIn
2013-1-1,23,12,2,-100,-100,-100,0,0,100,0.00,40.00,0,-999,0,0.00
2013-1-2,14,8,-6,-100,-100,-100,0,0,100,0.00,40.00,0,-999,0,0.00
2013-1-3,41,9,-9,-100,-100,-100,0,0,100,0.00,40.00,0,-999,0,0.00
2013-1-4,40,16,-1,-100,-100,-100,0,0,100,0.00,40.00,0,-999,0,0.00
2013-1-5,32,15,-1,-100,-100,-100,0,0,100,0.00,40.00,0,-999,0,0.00
2013-1-6,36,28,8,-100,-100,-100,0,0,100,0.00,40.00,0,-999,0,0.00
2013-1-7,28,24,19,-100,-100,-100,0,0,100,0.00,40.00,0,-999,0,0.00
2013-1-8,24,21,19,-100,-100,-100,0,0,100,0.00,40.00,0,-999,0,0.00
2013-1-9,43,34,24,-100,-100,-100,0,0,100,0.00,40.00,0,-999,0,0.00
2013-1-10,36,31,20,-100,-100,-100,0,0,100,0.00,40.00,0,-999,0,0.00
2013-1-11,11,1,-7,-100,-100,-100,0,0,100,0.00,40.00,0,-999,0,0.00
2013-1-12,2,-6,-12,-100,-100,-100,0,0,100,0.00,40.00,0,-999,0,0.00
2013-1-13,-1,-10,-18,-100,-100,-100,0,0,100,0.00,40.00,0,-999,0,0.00
2013-1-14,9,-5,-21,-100,-100,-100,0,0,100,0.00,40.00,0,-999,0,0.00
2013-1-15,28,21,9,-100,-100,-100,0,0,100,0.00,40.00,0,-999,0,0.00
2013-1-16,32,24,19,-100,-100,-100,0,0,100,0.00,40.00,0,-999,0,0.00
2013-1-17,36,27,20,-100,-100,-100,0,0,100,0.00,40.00,0,-999,0,0.00
2013-1-18,36,31,28,-100,-100,-100,0,0,100,0.00,40.00,0,-999,0,0.00
2013-1-19,34,29,25,-100,-100,-100,0,0,100,0.00,40.00,0,-999,0,0.00
2013-1-20,27,21,12,-100,-100,-100,0,0,100,0.00,40.00,0,-999,0,0.00
2013-1-21,35,28,19,-100,-100,-100,0,0,100,0.00,40.00,0,-999,0,0.00
2013-1-22,39,31,18,-100,-100,-100,0,0,100,0.00,40.00,0,-999,0,0.00
2013-1-23,40,36,33,-100,-100,-100,0,0,100,0.00,40.00,0,-999,0,0.00
2013-1-24,36,32,26,-100,-100,-100,0,0,100,0.00,40.00,0,-999,0,0.00
2013-1-25,41,30,25,-100,-100,-100,0,0,100,0.00,40.00,0,-999,0,0.00
2013-1-26,40,31,26,-100,-100,-100,0,0,100,0.00,40.00,0,-999,0,0.00
2013-1-27,32,22,15,-100,-100,-100,0,0,100,0.00,40.00,0,-999,0,0.00
2013-1-28,15,10,-2,-100,-100,-100,0,0,100,0.00,40.00,0,-999,0,0.00
2013-1-29,11,5,-1,-100,-100,-100,0,0,100,0.00,40.00,0,-999,0,0.00
2013-1-30,18,13,-2,-100,-100,-100,0,0,100,0.00,40.00,0,-999,0,0.00
2013-1-31,23,21,17,-100,-100,-100,0,0,100,0.00,40.00,0,-999,0,0.00
2013-2-1,26,21,18,-100,-100,-100,0,0,100,0.00,40.00,0,-999,0,0.00
2013-2-2,32,23,11,-100,-100,-100,0,0,100,0.00,40.00,0,-999,0,0.00
2013-2-3,35,26,9,-100,-100,-100,0,0,100,0.00,40.00,0,-999,0,0.00
2013-2-4,30,24,18,-100,-100,-100,0,0,100,0.00,40.00,0,-999,0,0.00
2013-2-5,32,24,7,-100,-100,-100,0,0,100,0.00,40.00,0,-999,0,0.00
2013-2-6,27,22,5,-100,-100,-100,0,0,100,0.00,40.00,0,-999,0,0.00
2013-2-7,31,20,-5,-100,-100,-100,0,0,100,0.00,40.00,0,-999,0,0.00
2013-2-8,29,20,8,-100,-100,-100,0,0,100,0.00,40.00,0,-999,0,0.00
2013-2-9,20,14,9,-100,-100,-100,0,0,100,0.00,40.00,0,-999,0,0.00
2013-2-10,12,8,3,-100,-100,-100,0,0,100,0.00,40.00,0,-999,0,0.00
2013-2-11,22,5,-15,-100,-100,-100,0,0,100,0.00,40.00,0,-999,0,0.00
2013-2-12,25,14,-6,-100,-100,-100,0,0,100,0.00,40.00,0,-999,0,0.00
2013-2-13,27,21,17,-100,-100,-100,0,0,100,0.00,40.00,0,-999,0,0.00
2013-2-14,17,10,6,-100,-100,-100,0,0,100,0.00,40.00,0,-999,0,0.00
2013-2-15,24,16,8,-100,-100,-100,0,0,100,0.00,40.00,0,-999,0,0.00
2013-2-16,36,27,17,-100,-100,-100,0,0,100,0.00,40.00,0,-999,0,0.00
2013-2-17,30,21,13,-100,-100,-100,0,0,100,0.00,40.00,0,-999,0,0.00
2013-2-18,16,10,-9,-100,-100,-100,0,0,100,0.00,40.00,0,-999,0,0.00
2013-2-19,34,15,-14,-100,-100,-100,0,0,100,0.00,40.00,0,-999,0,0.00
2013-2-20,29,12,-2,-100,-100,-100,0,0,100,0.00,40.00,0,-999,0,0.00
2013-2-21,23,10,-9,-100,-100,-100,0,0,100,0.00,40.00,0,-999,0,0.00
2013-2-22,19,9,-10,-100,-100,-100,0,0,100,0.00,40.00,0,-999,0,0.00
2013-2-23,23,18,11,-100,-100,-100,0,0,100,0.00,40.00,0,-999,0,0.00
2013-2-24,20,11,-9,-100,-100,-100,0,0,100,0.00,40.00,0,-999,0,0.00
2013-2-25,32,14,-7,-100,-100,-100,0,0,100,0.00,40.00,0,-999,0,0.00
2013-2-26,19,13,2,-100,-100,-100,0,0,100,0.00,40.00,0,-999,0,0.00
2013-2-27,19,8,-10,-100,-100,-100,0,0,100,0.00,40.00,0,-999,0,0.00
2013-2-28,24,17,11,-100,-100,-100,0,0,100,0.00,40.00,0,-999,0,0.00
2013-3-1,37,27,18,-100,-100,-100,0,0,100,0.00,40.00,0,-999,0,0.00
2013-3-2,43,33,26,-100,-100,-100,0,0,100,0.00,40.00,0,-999,0,0.00
2013-3-3,36,28,12,-100,-100,-100,0,0,100,0.00,40.00,0,-999,0,0.00
2013-3-4,12,6,-6,-100,-100,-100,0,0,100,0.00,40.00,0,-999,0,0.00
2013-3-5,31,15,-7,-100,-100,-100,0,0,100,0.00,40.00,0,-999,0,0.00
2013-3-6,40,27,5,-100,-100,-100,0,0,100,0.00,40.00,0,-999,0,0.00
2013-3-7,31,25,16,-100,-100,-100,0,0,100,0.00,40.00,0,-999,0,0.00
2013-3-8,37,26,14,-100,-100,-100,0,0,100,0.00,40.00,0,-999,0,0.00
2013-3-9,25,19,9,-100,-100,-100,0,0,100,0.00,40.00,0,-999,0,0.00
2013-3-10,41,24,-1,-100,-100,-100,0,0,100,0.00,40.00,0,-999,0,0.00
2013-3-11,27,21,11,-100,-100,-100,0,0,100,0.00,40.00,0,-999,0,0.00
2013-3-12,34,19,-1,-100,-100,-100,0,0,100,0.00,40.00,0,-999,0,0.00
2013-3-13,43,34,28,-100,-100,-100,0,0,100,0.00,40.00,0,-999,0,0.00
2013-3-14,46,36,25,-100,-100,-100,0,0,100,0.00,40.00,0,-999,0,0.00
2013-3-15,46,38,27,-100,-100,-100,0,0,100,0.00,40.00,0,-999,0,0.00
2013-3-16,32,27,16,-100,-100,-100,0,0,100,0.00,40.00,0,-999,0,0.00
2013-3-17,28,20,10,-100,-100,-100,0,0,100,0.00,40.00,0,-999,0,0.00
2013-3-18,16,11,7,-100,-100,-100,0,0,100,0.00,40.00,0,-999,0,0.00
2013-3-19,22,13,7,-100,-100,-100,0,0,100,0.00,40.00,0,-999,0,0.00
2013-3-20,38,24,2,-100,-100,-100,0,0,100,0.00,40.00,0,-999,0,0.00
2013-3-21,32,22,7,-100,-100,-100,0,0,100,0.00,40.00,0,-999,0,0.00
2013-3-22,18,9,-2,-100,-100,-100,0,0,100,0.00,40.00,0,-999,0,0.00
2013-3-23,14,-1,-20,-100,-100,-100,0,0,100,0.00,40.00,0,-999,0,0.00
2013-3-24,8,1,-10,-100,-100,-100,0,0,100,0.00,40.00,0,-999,0,0.00
2013-3-25,27,8,-17,-100,-100,-100,0,0,100,0.00,40.00,0,-999,0,0.00
2013-3-26,32,16,-2,-100,-100,-100,0,0,100,0.00,40.00,0,-999,0,0.00
2013-3-27,39,20,-1,-100,-100,-100,0,0,100,0.00,40.00,0,-999,0,0.00
2013-3-28,40,31,19,-100,-100,-100,0,0,100,0.00,40.00,0,-999,0,0.00
2013-3-29,40,30,20,-100,-100,-100,0,0,100,0.00,40.00,0,-999,0,0.00
2013-3-30,34,28,24,-100,-100,-100,0,0,100,0.00,40.00,0,-999,0,0.00
2013-3-31,41,31,20,-100,-100,-100,0,0,100,0.00,40.00,0,-999,0,0.00
2013-4-1,37,24,13,-100,-100,-100,0,0,100,0.00,40.00,0,-999,0,0.00
2013-4-2,46,27,11,-100,-100,-100,0,0,100,0.00,40.00,0,-999,0,0.00
2013-4-3,43,34,25,-100,-100,-100,0,0,100,0.00,40.00,0,-999,0,0.00
2013-4-4,48,38,22,-100,-100,-100,0,0,100,0.00,40.00,0,-999,0,0.00
2013-4-5,43,37,27,-100,-100,-100,0,0,100,0.00,40.00,0,-999,0,0.00
2013-4-6,40,31,23,-100,-100,-100,0,0,100,0.00,40.00,0,-999,0,0.00
2013-4-7,37,31,25,-100,-100,-100,0,0,100,0.00,40.00,0,-999,0,0.00
2013-4-8,26,16,5,-100,-100,-100,0,0,100,0.00,40.00,0,-999,0,0.00
2013-4-9,13,7,1,-100,-100,-100,0,0,100,0.00,40.00,0,-999,0,0.00
2013-4-10,30,17,-1,-100,-100,-100,0,0,100,0.00,40.00,0,-999,0,0.00
2013-4-11,30,28,24,-100,-100,-100,0,0,100,0.00,40.00,0,-999,0,0.00
2013-4-12,30,23,18,-100,-100,-100,0,0,100,0.00,40.00,0,-999,0,0.00
2013-4-13,35,28,20,-100,-100,-100,0,0,100,0.00,40.00,0,-999,0,0.00
2013-4-14,20,15,10,-100,-100,-100,0,0,100,0.00,40.00,0,-999,0,0.00
2013-4-15,15,7,-8,-100,-100,-100,0,0,100,0.00,40.00,0,-999,0,0.00
2013-4-16,13,7,-1,-100,-100,-100,0,0,100,0.00,40.00,0,-999,0,0.00
2013-4-17,14,6,-10,-100,-100,-100,0,0,100,0.00,40.00,0,-999,0,0.00
2013-4-18,29,12,-14,-100,-100,-100,0,0,100,0.00,40.00,0,-999,0,0.00
2013-4-19,35,26,15,-100,-100,-100,0,0,100,0.00,40.00,0,-999,0,0.00
2013-4-20,38,30,24,-100,-100,-100,0,0,100,0.00,40.00,0,-999,0,0.00
2013-4-21,34,24,13,-100,-100,-100,0,0,100,0.00,40.00,0,-999,0,0.00
2013-4-22,14,8,-8,-100,-100,-100,0,0,100,0.00,40.00,0,-999,0,0.00
2013-4-23,25,7,-14,-100,-100,-100,0,0,100,0.00,40.00,0,-999,0,0.00
2013-4-24,27,21,10,-100,-100,-100,0,0,100,0.00,40.00,0,-999,0,0.00
2013-4-25,40,32,21,-100,-100,-100,0,0,100,0.00,40.00,0,-999,0,0.00
2013-4-26,46,33,15,-100,-100,-100,0,0,100,0.00,40.00,0,-999,0,0.00
2013-4-27,50,40,22,-100,-100,-100,0,0,100,0.00,40.00,0,-999,0,0.00
2013-4-28,45,36,26,-100,-100,-100,0,0,100,0.00,40.00,0,-999,0,0.00
2013-4-29,44,37,27,-100,-100,-100,0,0,100,0.00,40.00,0,-999,0,0.00
2013-4-30,22,20,17,-100,-100,-100,0,0,100,0.00,40.00,0,-999,0,0.00
2013-5-1,20,15,3,-100,-100,-100,0,0,100,0.00,40.00,0,-999,0,0.00
2013-5-2,35,21,-3,-100,-100,-100,0,0,100,0.00,40.00,0,-999,0,0.00
2013-5-3,42,30,13,-100,-100,-100,0,0,100,0.00,40.00,0,-999,0,0.00
2013-5-4,34,31,29,-100,-100,-100,0,0,100,0.00,40.00,0,-999,0,0.00
2013-5-5,39,30,18,-100,-100,-100,0,0,100,0.00,40.00,0,-999,0,0.00
2013-5-6,49,36,22,-100,-100,-100,0,0,100,0.00,40.00,0,-999,0,0.00
2013-5-7,53,38,24,-100,-100,-100,0,0,100,0.00,40.00,0,-999,0,0.00
2013-5-8,49,38,28,-100,-100,-100,0,0,100,0.00,40.00,0,-999,0,0.00
2013-5-9,50,37,24,-100,-100,-100,0,0,100,0.00,40.00,0,-999,0,0.00
2013-5-10,51,36,24,-100,-100,-100,0,0,100,0.00,40.00,0,-999,0,0.00
2013-5-11,54,38,23,-100,-100,-100,0,0,100,0.00,40.00,0,-999,0,0.00
2013-5-12,60,46,33,-100,-100,-100,0,0,100,0.00,40.00,0,-999,0,0.00
2013-5-13,65,54,36,-100,-100,-100,0,0,100,0.00,40.00,0,-999,0,0.00
2013-5-14,63,53,38,-100,-100,-100,0,0,100,0.00,40.00,0,-999,0,0.00
2013-5-15,57,42,28,-100,-100,-100,0,0,100,0.00,40.00,0,-999,0,0.00
2013-5-16,53,44,38,-100,-100,-100,0,0,100,0.00,40.00,0,-999,0,0.00
2013-5-17,53,40,32,-100,-100,-100,0,0,100,0.00,40.00,0,-999,0,0.00
2013-5-18,47,38,31,-100,-100,-100,0,0,100,0.00,40.00,0,-999,0,0.00
2013-5-19,39,36,33,-100,-100,-100,0,0,100,0.00,40.00,0,-999,0,0.00
2013-5-20,33,32,30,-100,-100,-100,0,0,100,0.00,40.00,0,-999,0,0.00
2013-5-21,46,36,29,-100,-100,-100,0,0,100,0.00,40.00,0,-999,0,0.00
2013-5-22,49,38,29,-100,-100,-100,0,0,100,0.00,40.00,0,-999,0,0.00
2013-5-23,62,48,33,-100,-100,-100,0,0,100,0.00,40.00,0,-999,0,0.00
2013-5-24,54,44,31,-100,-100,-100,0,0,100,0.00,40.00,0,-999,0,0.00
2013-5-25,61,47,29,-100,-100,-100,0,0,100,0.00,40.00,0,-999,0,0.00
2013-5-26,54,43,31,-100,-100,-100,0,0,100,0.00,40.00,0,-999,0,0.00
2013-5-27,49,40,30,-100,-100,-100,0,0,100,0.00,40.00,0,-999,0,0.00
2013-5-28,50,39,29,-100,-100,-100,0,0,100,0.00,40.00,0,-999,0,0.00
2013-5-29,41,38,34,-100,-100,-100,0,0,100,0.00,40.00,0,-999,0,0.00
2013-5-30,37,36,35,-100,-100,-100,0,0,100,0.00,40.00,0,-999,0,0.00
2013-5-31,35,34,32,-100,-100,-100,0,0,100,0.00,40.00,0,-999,0,0.00
2013-6-1,43,36,28,-100,-100,-100,0,0,100,0.00,40.00,0,-999,0,0.00
2013-6-2,59,45,32,-100,-100,-100,0,0,100,0.00,40.00,0,-999,0,0.00
2013-6-3,47,42,37,-100,-100,-100,0,0,100,0.00,40.00,0,-999,0,0.00
2013-6-4,39,34,30,-100,-100,-100,0,0,100,0.00,40.00,0,-999,0,0.00
2013-6-5,46,36,26,-100,-100,-100,0,0,100,0.00,40.00,0,-999,0,0.00
2013-6-6,57,46,30,-100,-100,-100,0,0,100,0.00,40.00,0,-999,0,0.00
2013-6-7,63,50,36,-100,-100,-100,0,0,100,0.00,40.00,0,-999,0,0.00
2013-6-8,56,45,38,-100,-100,-100,0,0,100,0.00,40.00,0,-999,0,0.00
2013-6-9,66,52,32,-100,-100,-100,0,0,100,0.00,40.00,0,-999,0,0.00
2013-6-10,71,58,47,-100,-100,-100,0,0,100,0.00,40.00,0,-999,0,0.00
2013-6-11,66,52,42,-100,-100,-100,0,0,100,0.00,40.00,0,-999,0,0.00
2013-6-12,65,50,39,-100,-100,-100,0,0,100,0.00,40.00,0,-999,0,0.00
2013-6-13,66,54,43,-100,-100,-100,0,0,100,0.00,40.00,0,-999,0,0.00
2013-6-14,52,46,37,-100,-100,-100,0,0,100,0.00,40.00,0,-999,0,0.00
2013-6-15,59,45,33,-100,-100,-100,0,0,100,0.00,40.00,0,-999,0,0.00
2013-6-16,62,46,30,-100,-100,-100,0,0,100,0.00,40.00,0,-999,0,0.00
2013-6-17,59,51,39,-100,-100,-100,0,0,100,0.00,40.00,0,-999,0,0.00
2013-6-18,66,53,39,-100,-100,-100,0,0,100,0.00,40.00,0,-999,0,0.00
2013-6-19,73,60,44,-100,-100,-100,0,0,100,0.00,40.00,0,-999,0,0.00
2013-6-20,57,51,42,-100,-100,-100,0,0,100,0.00,40.00,0,-999,0,0.00
2013-6-22,50,43,38,-100,-100,-100,0,0,100,0.00,40.00,0,-999,0,0.00
2013-6-23,58,47,39,-100,-100,-100,0,0,100,0.00,40.00,0,-999,0,0.00
2013-6-24,68,52,37,-100,-100,-100,0,0,100,0.00,40.00,0,-999,0,0.00
2013-6-25,62,54,47,-100,-100,-100,0,0,100,0.00,40.00,0,-999,0,0.00
2013-6-26,65,57,47,-100,-100,-100,0,0,100,0.00,40.00,0,-999,0,0.00
2013-6-27,72,57,40,-100,-100,-100,0,0,100,0.00,40.00,0,-999,0,0.00
2013-6-28,69,56,42,-100,-100,-100,0,0,100,0.00,40.00,0,-999,0,0.00
2013-6-29,70,57,41,-100,-100,-100,0,0,100,0.00,40.00,0,-999,0,0.00
2013-6-30,70,57,46,-100,-100,-100,0,0,100,0.00,40.00,0,-999,0,0.00
2013-7-1,68,56,43,-100,-100,-100,0,0,100,0.00,40.00,0,-999,0,0.00
2013-7-2,71,55,39,-100,-100,-100,0,0,100,0.00,40.00,0,-999,0,0.00
2013-7-3,71,64,47,-100,-100,-100,0,0,100,0.00,40.00,0,-999,0,0.00
2013-7-4,64,55,44,-100,-100,-100,0,0,100,0.00,40.00,0,-999,0,0.00
2013-7-5,60,53,47,-100,-100,-100,0,0,100,0.00,40.00,0,-999,0,0.00
2013-7-6,64,54,46,-100,-100,-100,0,0,100,0.00,40.00,0,-999,0,0.00
2013-7-7,72,58,50,-100,-100,-100,0,0,100,0.00,40.00,0,-999,0,0.00
2013-7-8,72,58,48,-100,-100,-100,0,0,100,0.00,40.00,0,-999,0,0.00
2013-7-9,64,53,40,-100,-100,-100,0,0,100,0.00,40.00,0,-999,0,0.00
2013-7-10,72,60,44,-100,-100,-100,0,0,100,0.00,40.00,0,-999,0,0.00
2013-7-11,75,67,49,-100,-100,-100,0,0,100,0.00,40.00,0,-999,0,0.00
2013-7-12,65,55,46,-100,-100,-100,0,0,100,0.00,40.00,0,-999,0,0.00
2013-7-13,72,59,45,-100,-100,-100,0,0,100,0.00,40.00,0,-999,0,0.00
2013-7-14,66,56,48,-100,-100,-100,0,0,100,0.00,40.00,0,-999,0,0.00
2013-7-15,73,61,51,-100,-100,-100,0,0,100,0.00,40.00,0,-999,0,0.00
2013-7-16,68,55,45,-100,-100,-100,0,0,100,0.00,40.00,0,-999,0,0.00
2013-7-17,70,59,44,-100,-100,-100,0,0,100,0.00,40.00,0,-999,0,0.00
2013-7-18,69,62,50,-100,-100,-100,0,0,100,0.00,40.00,0,-999,0,0.00
2013-7-19,72,59,45,-100,-100,-100,0,0,100,0.00,40.00,0,-999,0,0.00
2013-7-20,67,56,42,-100,-100,-100,0,0,100,0.00,40.00,0,-999,0,0.00
2013-7-21,71,61,45,-100,-100,-100,0,0,100,0.00,40.00,0,-999,0,0.00
2013-7-22,74,62,43,-100,-100,-100,0,0,100,0.00,40.00,0,-999,0,0.00
2013-7-23,70,56,41,-100,-100,-100,0,0,100,0.00,40.00,0,-999,0,0.00
2013-7-24,69,56,40,-100,-100,-100,0,0,100,0.00,40.00,0,-999,0,0.00
2013-7-25,62,52,46,-100,-100,-100,0,0,100,0.00,40.00,0,-999,0,0.00
2013-7-26,66,56,41,-100,-100,-100,0,0,100,0.00,40.00,0,-999,0,0.00
2013-7-27,65,53,44,-100,-100,-100,0,0,100,0.00,40.00,0,-999,0,0.00
2013-7-28,59,51,44,-100,-100,-100,0,0,100,0.00,40.00,0,-999,0,0.00
2013-7-29,63,51,44,-100,-100,-100,0,0,100,0.00,40.00,0,-999,0,0.00
2013-7-30,62,54,44,-100,-100,-100,0,0,100,0.00,40.00,0,-999,0,0.00
2013-7-31,65,52,39,-100,-100,-100,0,0,100,0.00,40.00,0,-999,0,0.00
2013-8-1,65,56,46,-100,-100,-100,0,0,100,0.00,40.00,0,-999,0,0.00
2013-8-2,66,56,46,-100,-100,-100,0,0,100,0.00,40.00,0,-999,0,0.00
2013-8-3,66,54,40,-100,-100,-100,0,0,100,0.00,40.00,0,-999,0,0.00
2013-8-4,71,57,41,-100,-100,-100,0,0,100,0.00,40.00,0,-999,0,0.00
2013-8-5,72,55,41,-100,-100,-100,0,0,100,0.00,40.00,0,-999,0,0.00
2013-8-6,60,51,41,-100,-100,-100,0,0,100,0.00,40.00,0,-999,0,0.00
2013-8-7,64,51,38,-100,-100,-100,0,0,100,0.00,40.00,0,-999,0,0.00
2013-8-8,62,49,38,-100,-100,-100,0,0,100,0.00,40.00,0,-999,0,0.00
2013-8-9,53,48,42,-100,-100,-100,0,0,100,0.00,40.00,0,-999,0,0.00
2013-8-10,67,56,43,-100,-100,-100,0,0,100,0.00,40.00,0,-999,0,0.00
2013-8-11,65,53,40,-100,-100,-100,0,0,100,0.00,40.00,0,-999,0,0.00
2013-8-12,66,55,42,-100,-100,-100,0,0,100,0.00,40.00,0,-999,0,0.00
2013-8-13,63,48,40,-100,-100,-100,0,0,100,0.00,40.00,0,-999,0,0.00
2013-8-14,63,48,37,-100,-100,-100,0,0,100,0.00,40.00,0,-999,0,0.00
2013-8-15,70,55,37,-100,-100,-100,0,0,100,0.00,40.00,0,-999,0,0.00
2013-8-16,75,61,39,-100,-100,-100,0,0,100,0.00,40.00,0,-999,0,0.00
2013-8-17,76,64,45,-100,-100,-100,0,0,100,0.00,40.00,0,-999,0,0.00
2013-8-18,73,61,48,-100,-100,-100,0,0,100,0.00,40.00,0,-999,0,0.00
2013-8-19,75,60,45,-100,-100,-100,0,0,100,0.00,40.00,0,-999,0,0.00
2013-8-20,73,62,45,-100,-100,-100,0,0,100,0.00,40.00,0,-999,0,0.00
2013-8-21,67,58,48,-100,-100,-100,0,0,100,0.00,40.00,0,-999,0,0.00
2013-8-22,67,57,48,-100,-100,-100,0,0,100,0.00,40.00,0,-999,0,0.00
2013-8-23,72,62,51,-100,-100,-100,0,0,100,0.00,40.00,0,-999,0,0.00
2013-8-24,66,55,48,-100,-100,-100,0,0,100,0.00,40.00,0,-999,0,0.00
2013-8-25,70,57,45,-100,-100,-100,0,0,100,0.00,40.00,0,-999,0,0.00
2013-8-26,70,62,53,-100,-100,-100,0,0,100,0.00,40.00,0,-999,0,0.00
2013-8-27,64,57,51,-100,-100,-100,0,0,100,0.00,40.00,0,-999,0,0.00
2013-8-28,74,66,58,-100,-100,-100,0,0,100,0.00,40.00,0,-999,0,0.00
2013-8-29,71,58,44,-100,-100,-100,0,0,100,0.00,40.00,0,-999,0,0.00
2013-8-30,74,60,46,-100,-100,-100,0,0,100,0.00,40.00,0,-999,0,0.00
2013-8-31,63,54,44,-100,-100,-100,0,0,100,0.00,40.00,0,-999,0,0.00
2013-9-1,71,55,37,-100,-100,-100,0,0,100,0.00,40.00,0,-999,0,0.00
2013-9-2,71,59,44,-100,-100,-100,0,0,100,0.00,40.00,0,-999,0,0.00
2013-9-3,65,56,46,-100,-100,-100,0,0,100,0.00,40.00,0,-999,0,0.00
2013-9-4,73,60,48,-100,-100,-100,0,0,100,0.00,40.00,0,-999,0,0.00
2013-9-5,75,62,45,-100,-100,-100,0,0,100,0.00,40.00,0,-999,0,0.00
2013-9-6,72,59,48,-100,-100,-100,0,0,100,0.00,40.00,0,-999,0,0.00
2013-9-7,68,58,47,-100,-100,-100,0,0,100,0.00,40.00,0,-999,0,0.00
2013-9-8,61,51,46,-100,-100,-100,0,0,100,0.00,40.00,0,-999,0,0.00
2013-9-9,56,46,38,-100,-100,-100,0,0,100,0.00,40.00,0,-999,0,0.00
2013-9-10,56,44,36,-100,-100,-100,0,0,100,0.00,40.00,0,-999,0,0.00
2013-9-11,61,47,33,-100,-100,-100,0,0,100,0.00,40.00,0,-999,0,0.00
2013-9-12,60,49,34,-100,-100,-100,0,0,100,0.00,40.00,0,-999,0,0.00
2013-9-13,58,50,42,-100,-100,-100,0,0,100,0.00,40.00,0,-999,0,0.00
2013-9-14,53,47,41,-100,-100,-100,0,0,100,0.00,40.00,0,-999,0,0.00
2013-9-15,50,47,41,-100,-100,-100,0,0,100,0.00,40.00,0,-999,0,0.00
2013-9-16,64,53,43,-100,-100,-100,0,0,100,0.00,40.00,0,-999,0,0.00
2013-9-17,64,52,40,-100,-100,-100,0,0,100,0.00,40.00,0,-999,0,0.00
2013-9-18,45,41,34,-100,-100,-100,0,0,100,0.00,40.00,0,-999,0,0.00
2013-9-19,45,34,28,-100,-100,-100,0,0,100,0.00,40.00,0,-999,0,0.00
2013-9-20,60,42,28,-100,-100,-100,0,0,100,0.00,40.00,0,-999,0,0.00
2013-9-21,65,52,35,-100,-100,-100,0,0,100,0.00,40.00,0,-999,0,0.00
2013-9-22,59,50,37,-100,-100,-100,0,0,100,0.00,40.00,0,-999,0,0.00
2013-9-23,50,40,29,-100,-100,-100,0,0,100,0.00,40.00,0,-999,0,0.00
2013-9-24,58,46,29,-100,-100,-100,0,0,100,0.00,40.00,0,-999,0,0.00
2013-9-25,45,38,32,-100,-100,-100,0,0,100,0.00,40.00,0,-999,0,0.00
2013-9-26,35,31,26,-100,-100,-100,0,0,100,0.00,40.00,0,-999,0,0.00
2013-9-27,29,26,24,-100,-100,-100,0,0,100,0.00,40.00,0,-999,0,0.00
2013-9-28,40,33,23,-100,-100,-100,0,0,100,0.00,40.00,0,-999,0,0.00
2013-9-29,47,42,38,-100,-100,-100,0,0,100,0.00,40.00,0,-999,0,0.00
2013-9-30,48,44,40,-100,-100,-100,0,0,100,0.00,40.00,0,-999,0,0.00
2013-10-1,49,37,32,-100,-100,-100,0,0,100,0.00,40.00,0,-999,0,0.00
2013-10-2,39,34,28,-100,-100,-100,0,0,100,0.00,40.00,0,-999,0,0.00
2013-10-3,32,28,22,-100,-100,-100,0,0,100,0.00,40.00,0,-999,0,0.00
2013-10-4,22,19,17,-100,-100,-100,0,0,100,0.00,40.00,0,-999,0,0.00
2013-10-5,40,25,8,-100,-100,-100,0,0,100,0.00,40.00,0,-999,0,0.00
2013-10-6,53,40,27,-100,-100,-100,0,0,100,0.00,40.00,0,-999,0,0.00
2013-10-7,60,46,24,-100,-100,-100,0,0,100,0.00,40.00,0,-999,0,0.00
2013-10-8,46,39,29,-100,-100,-100,0,0,100,0.00,40.00,0,-999,0,0.00
2013-10-9,41,33,27,-100,-100,-100,0,0,100,0.00,40.00,0,-999,0,0.00
2013-10-10,46,35,26,-100,-100,-100,0,0,100,0.00,40.00,0,-999,0,0.00
2013-10-11,32,28,24,-100,-100,-100,0,0,100,0.00,40.00,0,-999,0,0.00
2013-10-12,37,26,16,-100,-100,-100,0,0,100,0.00,40.00,0,-999,0,0.00
2013-10-13,39,30,23,-100,-100,-100,0,0,100,0.00,40.00,0,-999,0,0.00
2013-10-14,30,23,17,-100,-100,-100,0,0,100,0.00,40.00,0,-999,0,0.00
2013-10-15,31,21,12,-100,-100,-100,0,0,100,0.00,40.00,0,-999,0,0.00
2013-10-16,35,24,5,-100,-100,-100,0,0,100,0.00,40.00,0,-999,0,0.00
2013-10-17,26,21,12,-100,-100,-100,0,0,100,0.00,40.00,0,-999,0,0.00
2013-10-18,30,23,17,-100,-100,-100,0,0,100,0.00,40.00,0,-999,0,0.00
2013-10-19,42,32,19,-100,-100,-100,0,0,100,0.00,40.00,0,-999,0,0.00
2013-10-20,31,28,25,-100,-100,-100,0,0,100,0.00,40.00,0,-999,0,0.00
2013-10-21,37,33,28,-100,-100,-100,0,0,100,0.00,40.00,0,-999,0,0.00
2013-10-22,47,37,28,-100,-100,-100,0,0,100,0.00,40.00,0,-999,0,0.00
2013-10-23,43,33,24,-100,-100,-100,0,0,100,0.00,40.00,0,-999,0,0.00
2013-10-24,44,31,21,-100,-100,-100,0,0,100,0.00,40.00,0,-999,0,0.00
2013-10-25,51,36,23,-100,-100,-100,0,0,100,0.00,40.00,0,-999,0,0.00
2013-10-26,49,39,22,-100,-100,-100,0,0,100,0.00,40.00,0,-999,0,0.00
2013-10-27,45,37,26,-100,-100,-100,0,0,100,0.00,40.00,0,-999,0,0.00
2013-10-28,26,23,19,-100,-100,-100,0,0,100,0.00,40.00,0,-999,0,0.00
2013-10-29,40,26,17,-100,-100,-100,0,0,100,0.00,40.00,0,-999,0,0.00
2013-10-30,34,27,22,-100,-100,-100,0,0,100,0.00,40.00,0,-999,0,0.00
2013-10-31,34,29,25,-100,-100,-100,0,0,100,0.00,40.00,0,-999,0,0.00
2013-11-1,29,25,21,-100,-100,-100,0,0,100,0.00,40.00,0,-999,0,0.00
2013-11-2,45,35,20,-100,-100,-100,0,0,100,0.00,40.00,0,-999,0,0.00
2013-11-3,37,25,11,-100,-100,-100,0,0,100,0.00,40.00,0,-999,0,0.00
2013-11-4,20,13,1,-100,-100,-100,0,0,100,0.00,40.00,0,-999,0,0.00
2013-11-5,21,13,-1,-100,-100,-100,0,0,100,0.00,40.00,0,-999,0,0.00
2013-11-6,26,22,18,-100,-100,-100,0,0,100,0.00,40.00,0,-999,0,0.00
2013-11-7,39,31,23,-100,-100,-100,0,0,100,0.00,40.00,0,-999,0,0.00
2013-11-8,35,30,26,-100,-100,-100,0,0,100,0.00,40.00,0,-999,0,0.00
2013-11-9,34,27,21,-100,-100,-100,0,0,100,0.00,40.00,0,-999,0,0.00
2013-11-10,41,36,27,-100,-100,-100,0,0,100,0.00,40.00,0,-999,0,0.00
2013-11-11,37,32,23,-100,-100,-100,0,0,100,0.00,40.00,0,-999,0,0.00
2013-11-12,51,37,17,-100,-100,-100,0,0,100,0.00,40.00,0,-999,0,0.00
2013-11-13,43,36,26,-100,-100,-100,0,0,100,0.00,40.00,0,-999,0,0.00
2013-11-14,32,27,24,-100,-100,-100,0,0,100,0.00,40.00,0,-999,0,0.00
2013-11-15,31,25,17,-100,-100,-100,0,0,100,0.00,40.00,0,-999,0,0.00
2013-11-16,27,22,16,-100,-100,-100,0,0,100,0.00,40.00,0,-999,0,0.00
2013-11-17,23,16,12,-100,-100,-100,0,0,100,0.00,40.00,0,-999,0,0.00
2013-11-18,41,33,23,-100,-100,-100,0,0,100,0.00,40.00,0,-999,0,0.00
2013-11-19,38,35,31,-100,-100,-100,0,0,100,0.00,40.00,0,-999,0,0.00
2013-11-20,37,24,8,-100,-100,-100,0,0,100,0.00,40.00,0,-999,0,0.00
2013-11-21,15,6,-12,-100,-100,-100,0,0,100,0.00,40.00,0,-999,0,0.00
2013-11-22,28,15,3,-100,-100,-100,0,0,100,0.00,40.00,0,-999,0,0.00
2013-11-23,37,26,-1,-100,-100,-100,0,0,100,0.00,40.00,0,-999,0,0.00
2013-11-24,39,26,9,-100,-100,-100,0,0,100,0.00,40.00,0,-999,0,0.00
2013-11-25,33,25,15,-100,-100,-100,0,0,100,0.00,40.00,0,-999,0,0.00
2013-11-26,36,28,19,-100,-100,-100,0,0,100,0.00,40.00,0,-999,0,0.00
2013-11-27,43,32,16,-100,-100,-100,0,0,100,0.00,40.00,0,-999,0,0.00
2013-11-28,40,31,12,-100,-100,-100,0,0,100,0.00,40.00,0,-999,0,0.00
2013-11-29,40,32,19,-100,-100,-100,0,0,100,0.00,40.00,0,-999,0,0.00
2013-11-30,33,28,24,-100,-100,-100,0,0,100,0.00,40.00,0,-999,0,0.00
2013-12-1,29,28,25,-100,-100,-100,0,0,100,0.00,40.00,0,-999,0,0.00
2013-12-2,33,28,20,-100,-100,-100,0,0,100,0.00,40.00,0,-999,0,0.00
2013-12-3,19,0,-12,-100,-100,-100,0,0,100,0.00,40.00,0,-999,0,0.00
2013-12-4,-6,-16,-24,-100,-100,-100,0,0,100,0.00,40.00,0,-999,0,0.00
2013-12-5,-3,-16,-31,-100,-100,-100,0,0,100,0.00,40.00,0,-999,0,0.00
2013-12-6,-4,-13,-33,-100,-100,-100,0,0,100,0.00,40.00,0,-999,0,0.00
2013-12-7,5,-3,-26,-100,-100,-100,0,0,100,0.00,40.00,0,-999,0,0.00
2013-12-8,-1,-8,-17,-100,-100,-100,0,0,100,0.00,40.00,0,-999,0,0.00
2013-12-9,10,2,-12,-100,-100,-100,0,0,100,0.00,40.00,0,-999,0,0.00
2013-12-10,15,9,4,-100,-100,-100,0,0,100,0.00,40.00,0,-999,0,0.00
2013-12-11,24,16,5,-100,-100,-100,0,0,100,0.00,40.00,0,-999,0,0.00
2013-12-12,39,29,23,-100,-100,-100,0,0,100,0.00,40.00,0,-999,0,0.00
2013-12-13,24,20,16,-100,-100,-100,0,0,100,0.00,40.00,0,-999,0,0.00
2013-12-14,31,24,18,-100,-100,-100,0,0,100,0.00,40.00,0,-999,0,0.00
2013-12-15,39,31,23,-100,-100,-100,0,0,100,0.00,40.00,0,-999,0,0.00
2013-12-16,32,28,25,-100,-100,-100,0,0,100,0.00,40.00,0,-999,0,0.00
2013-12-17,38,34,27,-100,-100,-100,0,0,100,0.00,40.00,0,-999,0,0.00
2013-12-18,39,34,26,-100,-100,-100,0,0,100,0.00,40.00,0,-999,0,0.00
2013-12-19,23,11,-5,-100,-100,-100,0,0,100,0.00,40.00,0,-999,0,0.00
2013-12-20,18,11,-9,-100,-100,-100,0,0,100,0.00,40.00,0,-999,0,0.00
2013-12-21,16,13,10,-100,-100,-100,0,0,100,0.00,40.00,0,-999,0,0.00
2013-12-22,12,9,6,-100,-100,-100,0,0,100,0.00,40.00,0,-999,0,0.00
2013-12-23,30,22,6,-100,-100,-100,0,0,100,0.00,40.00,0,-999,0,0.00
2013-12-24,28,18,8,-100,-100,-100,0,0,100,0.00,40.00,0,-999,0,0.00
2013-12-25,33,20,4,-100,-100,-100,0,0,100,0.00,40.00,0,-999,0,0.00
2013-12-26,37,30,26,-100,-100,-100,0,0,100,0.00,40.00,0,-999,0,0.00
2013-12-27,43,36,28,-100,-100,-100,0,0,100,0.00,40.00,0,-999,0,0.00
2013-12-28,38,22,8,-100,-100,-100,0,0,100,0.00,40.00,0,-999,0,0.00
2013-12-29,22,16,4,-100,-100,-100,0,0,100,0.00,40.00,0,-999,0,0.00
2013-12-30,24,21,18,-100,-100,-100,0,0,100,0.00,40.00,0,-999,0,0.00
2013-12-31,28,25,20,-100,-100,-100,0,0,100,0.00,40.00,0,-999,0,0.00
2014-1-1,19,14,6,-100,-100,-100,0,0,100,0.00,40.00,0,-999,0,0.00
2014-1-2,30,24,6,-100,-100,-100,0,0,100,0.00,40.00,0,-999,0,0.00